COSMOS 1900 DEB, 43501

Orbit data source: Space-Track

COSMOS 1900 DEB, 43501 is space debris in LEO originally from a launch on Sat, 12 Dec 1987 UTC launched from the Tyuratam Missile And Space Complex (TTMTR). Debris objects in space refer to the collection of defunct objects orbiting the Earth. Examples of debris include non-operational satellites, rocket bodies, and fragments generated from explosions, collisions, or faulty payload assembly.

Loading next visibility...
Identifier
43501, 1987-101F
Orbit
LEO
Country
Flag of CISCIS
Related business
Manufacturer
Unknown
Mission
Spacecraft
Bus & Motor
Unknown
Mass
Unknown
Launch date (UTC)
1987-12-12 (39 years ago)
Launch vehicle
Unknown
Launch site
Tyuratam Missile And Space Complex (TTMTR)
Object type
Payload
Rocket body
Debris
Shape & HBR
Unknown shape, 0.1 m
Radar Cross Section
Small (<0.1 m²)

Expand to show TLE details & history
Last TLE update: 2 weeks ago

TLE from 2 weeks ago
0 COSMOS 1900 DEB
1 43501U 87101F   26161.34019830  .00000307  00000-0  88223-4 0  9991
2 43501  66.0839  20.5604 0024250  98.6079 261.7777 14.58542283235274
Epoch: 2026-06-10T08:09Z
TLE epoch observation values (Epoch: 2026-06-10T08:09:53.133Z)
Latitude
-0.00004°
Longitude
-0.61076°
Altitude
702.466 km
Speed
7.504 km/s
True Right ascension
01h 22m 14s
True Declination
0° 00' 00"
Sunlit
Object was in daylight at epoch
Visualization orbit readout
Latitude
Unknown
Longitude
Unknown
Altitude
Unknown
Speed
Unknown
Apparent Right ascension
Unknown
Apparent Declination
Unknown
Sunlit
N/A
Visualization observer readout
Local Sidereal Time
21:35:45
Azimuth
Unknown
Elevation
Unknown
Doppler factor
Unknown
Orbital elements
Apogee altitude
713.467 km
Perigee altitude
679.156 km
Semi-major axis
7,074.449 km
Eccentricity
0.00243
Inclination
66.0839°
RAAN
20.5604°
Arg. of periapsis
98.6079°
True anomaly
261.50279°
Mean anomaly
261.7777°
Eccentric anomaly
261.64023°
Mean motion
3.64758 °/min
Orbital period
98.7 mins
BSTAR
0.000088223
Loading maneuver chart data...
Computing Atmospheric mass density...
Loading historical data...
Loading historical data...
Loading historical data...
Loading historical data...
Loading historical data...
Loading historical data...
Loading historical data...

Documentation

Showing up to 5 results
|